Wind_Speed
1 1 1 1 2 3 3 3 3 3 2 3 2 3 3 4 4 5 5 5 5 6 7 7 7 7 8 9 10 10 10 9 9 8 7 6 6 5 4 3 3 2 1 1 1 1 1 0 0
2 2 2 2 2 3 6 5 5 5 4 4 5 4 4 5 5 5 6 6 6 7 8 8 8 8 9 10 11 11 11 10 10 9 9 8 8 7 7 6 5 4 4 4 3 3 3 3 2
5 5 5 5 5 6 7 7 8 7 7 7 7 6 6 5 6 7 7 7 7 8 8 8 9 9 10 11 11 11 11 11 11 11 11 11 10 10 9 8 7 7 7 6 6 5 5 5 5
8 8 8 8 9 10 10 10 10 10 10 10 9 8 8 7 8 8 8 8 8 8 9 9 10 10 11 12 12 12 12 12 12 12 13 12 12 12 11 10 10 9 9 9 9 8 8 8 7
12 11 10 10 13 14 14 13 12 12 12 12 11 11 10 10 10 10 10 9 9 10 10 10 10 11 12 12 13 13 14 14 14 14 14 14 14 13 13 13 12 12 11 11 11 11 11 10 10
15 14 13 13 17 17 18 16 15 14 14 13 13 13 13 12 12 12 11 12 12 11 11 11 11 12 12 13 14 15 16 16 16 16 16 16 16 16 15 15 15 14 13 13 13 13 13 13 13
17 17 17 18 19 21 21 19 18 16 15 14 14 15 15 14 14 13 13 13 12 12 12 12 13 14 15 16 16 17 18 18 19 19 19 18 18 18 18 17 16 15 15 15 15 15 15 15 15
19 19 19 20 21 23 23 21 19 17 16 15 15 15 16 15 14 14 14 14 13 14 14 14 15 16 18 19 19 20 21 21 21 22 22 21 21 21 20 19 18 18 17 16 16 16 17 17 17
20 21 20 22 24 24 24 23 21 19 19 17 16 16 16 16 16 16 17 17 17 17 18 18 19 20 21 21 22 23 24 24 24 25 25 24 24 23 23 22 21 20 19 18 18 18 18 18 18
21 21 22 24 24 25 25 25 24 21 20 20 19 19 19 19 19 20 19 20 20 21 21 21 22 23 24 24 25 26 27 27 28 28 28 28 27 26 25 24 23 22 21 20 20 19 19 18 18
21 21 22 24 25 25 26 26 26 24 23 23 22 22 22 22 22 22 23 23 23 23 24 24 25 25 26 27 27 28 29 29 30 31 32 31 30 30 29 27 25 24 23 22 21 21 20 19 19
22 21 22 23 24 24 26 27 28 28 27 26 25 25 24 24 25 25 25 25 24 26 26 27 28 28 28 29 30 30 31 31 33 33 33 33 33 32 32 30 28 27 25 24 24 22 22 21 21
23 22 22 22 24 24 25 27 29 30 30 29 28 28 27 27 27 28 28 28 28 29 29 30 30 30 31 31 31 32 32 33 34 34 35 35 34 33 34 32 31 29 28 27 26 24 23 23 23
22 22 22 22 23 23 24 26 28 29 30 30 30 30 29 29 30 30 30 30 31 32 32 32 32 32 33 33 34 34 34 35 34 35 36 37 36 34 35 35 33 32 31 30 28 27 25 24 22
21 21 22 22 22 23 23 24 26 27 29 30 30 30 31 31 31 32 32 32 33 34 34 34 34 35 35 36 36 36 35 35 35 35 36 37 37 37 35 36 35 34 32 31 30 28 26 24 23
20 19 19 22 21 22 21 23 24 25 26 27 27 28 28 29 30 30 32 33 34 35 36 36 36 38 38 38 38 37 37 37 36 36 36 37 36 36 36 36 36 35 35 33 32 30 27 26 24
16 15 15 20 20 20 20 23 24 24 24 25 24 25 25 26 28 30 31 32 33 35 37 37 38 40 41 41 42 39 38 38 37 36 37 36 36 35 35 35 36 35 36 34 32 30 29 27 26
13 13 14 17 18 19 20 22 23 23 24 24 24 24 24 25 27 29 31 32 35 36 38 39 40 42 42 43 42 40 39 38 36 36 35 34 33 33 33 33 32 32 33 32 31 31 29 29 27
14 13 13 16 17 18 19 21 22 22 23 23 24 25 26 27 28 29 31 34 36 37 38 40 41 41 42 42 41 39 38 37 36 35 33 33 33 32 31 30 31 30 30 30 30 29 29 28 27
11 11 12 14 15 16 18 19 20 21 21 21 22 23 24 26 28 30 32 34 35 36 38 40 41 42 41 40 38 37 36 35 34 32 31 31 32 30 29 29 29 29 28 28 28 30 30 29 28
8 8 9 12 13 13 14 15 15 16 17 19 20 21 23 25 28 30 32 33 34 35 37 39 40 40 39 38 37 36 35 34 34 33 32 31 31 30 29 30 30 30 29 28 28 28 29 30 30
7 9 9 10 10 11 11 12 17 16 17 18 20 21 23 25 26 29 31 32 33 35 36 37 37 37 38 38 38 38 38 38 37 36 34 33 33 33 32 32 33 32 32 31 31 30 31 31 31
8 8 9 9 9 10 12 10 18 17 18 19 21 23 24 26 28 29 31 33 34 35 36 36 37 38 39 39 40 41 41 41 40 39 38 37 36 36 37 37 36 36 36 35 34 34 34 34 34
8 8 9 10 9 10 13 12 18 18 19 21 22 24 25 27 29 31 32 33 35 36 37 38 39 40 41 42 43 44 44 44 43 43 42 42 41 41 41 41 41 40 41 40 40 39 39 38 38
8 8 9 9 9 12 16 15 17 19 20 22 23 25 26 28 30 31 33 35 36 38 39 40 41 42 43 44 45 46 46 46 46 46 46 46 46 46 45 46 46 46 46 45 45 45 44 44 43
8 8 8 9 10 14 17 17 17 19 21 23 25 26 28 30 32 34 35 36 38 39 41 42 43 43 44 45 46 47 47 47 48 48 49 50 50 50 50 50 51 51 51 50 50 50 49 48 48
8 8 9 10 12 12 16 18 18 20 23 24 26 28 30 32 33 35 37 38 40 41 42 43 43 44 45 46 47 48 48 49 49 50 51 52 53 53 54 54 55 55 55 55 55 54 54 53 52
9 10 10 10 11 11 15 19 20 22 24 26 28 30 32 33 36 37 39 40 41 41 42 43 44 45 46 48 48 49 49 50 51 52 53 54 55 55 56 57 57 58 58 59 59 59 58 58 57
9 9 10 11 11 12 14 20 21 23 25 27 29 31 34 36 38 39 40 41 41 42 43 44 45 46 47 48 49 49 50 51 52 53 54 55 56 56 57 58 59 59 60 60 61 61 62 61 61
9 9 10 11 13 14 16 21 21 24 26 29 31 34 36 37 39 40 41 42 43 43 44 45 46 47 48 49 49 50 50 51 52 53 53 54 55 56 57 57 58 59 60 60 61 62 63 63 64
Wind_Direction
154 144 157 44 16 8 355 336 315 297 281 285 287 284 290 299 304 309 308 309 313 315 315 316 315 314 315 313 310 310 311 310 312 315 318 320 320 320 318 313 309 301 289 277 271 272 272 279 326
246 242 258 275 313 335 304 308 308 309 309 306 302 297 289 293 295 296 300 302 307 311 313 313 313 313 312 310 308 307 307 307 308 310 311 314 313 312 309 302 295 287 278 268 263 261 262 264 262
260 260 265 274 276 270 283 294 299 303 309 309 307 304 302 299 292 294 299 301 304 306 307 310 311 310 308 307 304 302 302 302 303 305 305 306 306 306 303 297 290 282 276 271 266 263 262 263 262
263 266 269 273 277 275 280 289 297 299 303 305 305 305 305 305 302 301 301 301 304 304 304 306 308 307 304 302 301 299 298 299 299 301 302 302 302 301 299 294 287 281 275 271 268 265 263 261 260
266 265 267 271 272 276 279 285 293 297 300 299 303 306 305 305 303 301 299 299 302 303 304 306 307 305 303 299 298 298 298 297 297 299 299 300 300 298 296 293 287 281 276 272 269 266 263 260 257
270 269 264 263 269 274 277 282 290 295 296 296 300 302 302 303 302 299 297 297 299 302 302 302 302 301 300 298 297 296 297 297 296 296 296 297 297 296 293 291 287 283 278 273 269 265 263 261 258
268 267 265 265 268 273 276 281 286 289 290 294 298 299 297 297 299 298 298 298 299 299 298 298 297 296 297 297 296 296 295 295 295 295 294 294 293 291 290 289 287 284 279 275 270 265 262 260 258
266 265 265 266 268 271 276 280 283 283 285 289 291 293 293 295 296 296 298 297 298 299 297 297 296 294 295 296 295 295 294 293 293 292 292 290 288 288 286 285 284 281 278 275 272 267 263 261 259
265 263 263 262 263 267 273 275 278 281 283 285 285 287 290 292 293 293 295 295 295 295 295 294 294 295 295 295 294 293 293 291 290 289 289 287 285 284 282 281 280 278 276 274 271 268 265 262 260
266 263 260 260 262 264 267 270 273 276 278 279 280 283 286 290 292 291 292 293 294 295 294 294 295 295 295 294 292 291 290 289 288 286 285 285 283 281 279 277 276 276 274 272 269 267 265 263 261
268 266 263 262 261 262 263 264 268 270 269 272 276 280 283 287 289 290 290 292 293 293 293 293 296 295 294 293 292 290 289 287 287 285 282 281 279 277 276 274 273 272 271 270 267 265 264 263 261
271 268 266 264 264 262 261 261 262 265 267 271 272 276 279 282 285 287 288 289 290 291 291 291 293 293 293 294 295 292 288 286 284 283 282 280 277 275 272 272 270 270 269 267 266 264 264 262 261
272 272 271 268 266 264 262 260 261 264 268 270 271 274 277 279 282 284 287 288 289 289 288 290 291 291 291 291 292 291 287 287 285 281 282 280 277 273 269 268 268 267 266 265 264 263 262 261 261
273 273 274 273 271 269 267 266 265 266 268 269 271 272 274 276 278 279 281 282 283 284 285 286 288 289 289 287 290 291 289 286 286 284 283 279 277 273 268 265 266 266 265 262 261 261 260 259 260
275 276 277 276 276 276 276 274 271 271 270 270 271 272 272 274 276 276 276 278 280 282 282 283 285 288 289 288 288 290 289 287 285 283 282 278 275 273 269 264 263 263 261 259 258 258 259 258 258
277 279 280 281 281 281 280 277 278 277 276 275 275 274 273 273 273 273 273 275 278 280 282 284 285 287 288 288 287 289 287 285 285 282 280 276 274 274 271 266 261 260 257 255 254 256 255 255 257
279 277 275 282 283 284 281 279 282 281 281 280 279 277 276 272 272 271 273 275 278 279 281 284 285 287 287 288 287 285 285 284 283 280 279 276 275 273 270 264 258 257 255 254 252 253 253 254 255
267 272 276 280 285 285 283 283 284 283 283 282 280 278 276 273 272 272 273 275 278 280 282 284 285 287 287 288 287 286 285 284 283 281 278 275 276 275 270 260 255 254 254 252 251 251 251 254 255
271 273 277 281 285 286 285 284 285 284 284 282 279 277 276 275 274 275 277 279 280 282 284 286 287 286 287 289 287 286 286 283 284 282 279 273 272 272 266 259 254 254 254 253 253 251 250 252 254
277 282 285 288 289 289 289 287 286 285 283 282 281 281 280 279 280 280 281 282 284 285 284 286 287 288 288 288 289 287 288 288 285 283 280 275 269 267 260 257 255 257 254 254 255 251 249 249 252
286 282 281 291 297 296 297 301 296 292 290 288 287 287 285 284 284 284 285 287 287 288 290 288 287 287 288 288 289 288 288 290 286 283 279 276 272 268 265 260 257 256 256 257 255 253 249 250 250
278 280 287 297 305 303 306 302 299 300 297 295 294 294 293 292 290 291 291 291 291 292 292 291 289 289 289 288 288 289 290 288 286 283 279 277 274 270 266 264 260 257 255 255 254 254 253 250 249
268 284 296 303 302 300 304 301 297 302 299 297 297 297 297 296 294 294 295 295 296 297 295 292 291 291 290 289 288 287 287 286 285 282 279 275 272 267 264 264 262 259 257 256 254 253 252 250 249
287 297 305 313 313 297 295 299 293 302 300 299 298 299 299 300 299 297 297 298 298 298 297 295 294 292 290 289 288 287 286 284 282 280 278 274 271 268 263 261 260 260 259 257 255 253 251 250 249
296 309 314 310 304 289 294 297 293 297 299 300 301 302 302 303 303 302 301 300 300 299 298 297 295 294 292 290 288 287 285 284 281 279 276 274 272 269 265 262 260 259 257 256 254 252 250 250 249
294 296 287 280 285 292 301 301 302 301 303 304 304 305 306 306 306 305 304 303 302 300 299 297 296 294 293 291 289 287 285 283 281 278 276 274 272 269 266 263 260 258 257 255 253 251 249 249 249
295 293 293 298 300 303 302 305 306 308 310 310 309 309 310 310 309 308 307 305 303 302 301 299 298 296 294 293 291 289 287 284 281 279 277 274 272 270 267 264 261 258 256 254 252 251 249 248 248
299 303 305 305 303 303 303 309 314 315 314 314 315 315 315 314 312 311 309 308 307 305 304 302 300 298 297 295 294 291 289 287 284 282 279 276 273 270 267 264 262 259 256 254 252 250 249 248 247
312 313 313 313 313 313 307 307 318 319 319 318 318 318 317 316 315 314 313 312 310 308 307 306 304 302 300 298 296 294 292 290 287 284 282 279 275 272 268 265 262 260 257 255 253 251 250 248 246
322 323 324 324 322 322 319 315 323 322 322 322 321 321 320 319 318 317 317 315 313 312 311 309 308 306 304 302 299 297 295 292 290 288 286 283 279 275 271 267 263 260 258 255 253 251 249 248 246
Height
5932 5932 5933 5934 5935 5935 5934 5933 5932 5931 5931 5930 5929 5928 5927 5927 5927 5928 5925 5923 5922 5922 5921 5920 5920 5919 5919 5918 5917 5917 5916 5915 5914 5913 5911 5910 5910 5909 5908 5907 5907 5906 5905 5905 5905 5904 5904 5903 5903
5933 5933 5934 5934 5935 5936 5935 5933 5932 5931 5930 5929 5928 5927 5926 5925 5925 5924 5923 5922 5921 5920 5919 5919 5918 5918 5917 5917 5916 5915 5915 5914 5912 5911 5910 5909 5908 5908 5907 5906 5906 5905 5905 5904 5904 5904 5903 5903 5903
5933 5933 5934 5934 5934 5934 5934 5932 5931 5930 5929 5928 5927 5927 5926 5924 5923 5922 5921 5920 5919 5919 5918 5917 5917 5916 5916 5915 5915 5914 5913 5912 5911 5910 5909 5908 5907 5906 5906 5905 5905 5904 5904 5903 5903 5902 5902 5902 5902
5932 5933 5934 5934 5933 5932 5932 5931 5931 5930 5929 5927 5927 5925 5924 5923 5922 5921 5919 5918 5918 5917 5916 5915 5915 5914 5914 5913 5913 5912 5911 5910 5909 5908 5907 5906 5905 5905 5904 5904 5903 5902 5902 5902 5901 5901 5901 5900 5900
5931 5932 5933 5933 5932 5931 5930 5930 5929 5929 5928 5927 5926 5924 5923 5921 5920 5919 5918 5917 5916 5915 5914 5913 5912 5912 5911 5911 5910 5909 5908 5907 5906 5906 5905 5904 5903 5903 5902 5901 5901 5900 5900 5899 5899 5899 5898 5898 5898
5929 5930 5931 5932 5930 5929 5928 5928 5928 5927 5926 5926 5924 5923 5921 5920 5919 5917 5916 5915 5914 5913 5912 5911 5910 5909 5909 5908 5907 5906 5905 5904 5904 5903 5902 5901 5900 5900 5899 5898 5898 5897 5897 5896 5896 5896 5896 5895 5895
5927 5927 5928 5928 5927 5926 5926 5925 5925 5925 5924 5924 5923 5922 5919 5918 5917 5915 5914 5913 5912 5910 5909 5908 5907 5906 5906 5905 5904 5903 5902 5901 5900 5899 5899 5898 5897 5896 5895 5895 5894 5894 5893 5893 5892 5892 5892 5892 5892
5923 5924 5924 5925 5924 5923 5922 5922 5922 5922 5922 5921 5920 5919 5917 5916 5914 5913 5912 5910 5909 5908 5907 5906 5905 5904 5903 5902 5901 5900 5899 5897 5896 5895 5895 5894 5893 5892 5891 5891 5890 5890 5889 5889 5888 5888 5888 5888 5888
5919 5921 5921 5921 5920 5919 5919 5919 5919 5919 5919 5918 5917 5916 5915 5913 5912 5910 5909 5908 5907 5906 5904 5903 5902 5900 5899 5898 5897 5895 5894 5893 5892 5891 5890 5889 5888 5887 5887 5886 5886 5885 5885 5884 5884 5884 5883 5883 5884
5915 5916 5916 5915 5915 5915 5915 5915 5915 5916 5915 5914 5914 5913 5912 5911 5909 5908 5906 5905 5904 5903 5901 5900 5898 5897 5895 5894 5892 5891 5889 5888 5886 5885 5884 5883 5883 5882 5882 5881 5881 5880 5880 5879 5879 5879 5879 5879 5879
5910 5911 5910 5909 5909 5910 5910 5910 5910 5911 5911 5910 5910 5909 5908 5907 5906 5905 5903 5902 5901 5899 5898 5896 5895 5893 5891 5889 5887 5886 5884 5882 5880 5879 5878 5877 5876 5876 5876 5875 5875 5874 5874 5874 5874 5874 5874 5874 5874
5905 5905 5904 5904 5904 5905 5905 5905 5905 5905 5905 5906 5905 5905 5904 5903 5902 5901 5899 5898 5896 5895 5893 5892 5890 5888 5887 5885 5883 5880 5878 5876 5874 5873 5872 5870 5870 5869 5869 5868 5868 5868 5868 5868 5868 5868 5868 5868 5869
5900 5900 5899 5899 5899 5899 5900 5900 5900 5900 5900 5900 5900 5900 5900 5899 5898 5896 5895 5894 5892 5890 5888 5887 5885 5884 5881 5879 5877 5875 5872 5870 5868 5866 5864 5863 5862 5862 5861 5862 5861 5861 5862 5862 5862 5862 5863 5863 5863
5895 5895 5894 5894 5894 5894 5894 5895 5895 5895 5895 5895 5895 5895 5894 5893 5892 5891 5890 5888 5886 5884 5883 5881 5879 5878 5875 5873 5870 5868 5865 5863 5860 5858 5856 5855 5854 5854 5854 5854 5854 5854 5855 5855 5856 5856 5856 5856 5857
5890 5890 5890 5889 5889 5889 5890 5890 5889 5889 5889 5889 5889 5889 5888 5887 5886 5885 5884 5882 5880 5878 5876 5873 5872 5870 5868 5866 5863 5861 5858 5855 5853 5851 5849 5847 5846 5845 5845 5845 5846 5847 5847 5848 5849 5849 5849 5850 5851
5886 5887 5887 5885 5885 5885 5887 5885 5884 5883 5883 5883 5883 5883 5882 5881 5880 5879 5877 5876 5874 5872 5869 5867 5865 5863 5860 5858 5855 5852 5850 5847 5845 5842 5840 5838 5837 5836 5836 5836 5837 5837 5838 5840 5841 5842 5843 5843 5844
5883 5884 5884 5881 5881 5881 5881 5880 5879 5878 5878 5877 5877 5876 5876 5875 5874 5872 5871 5869 5867 5865 5862 5860 5857 5855 5852 5848 5846 5843 5841 5838 5836 5833 5831 5829 5828 5827 5826 5826 5827 5828 5830 5831 5833 5835 5836 5837 5838
5881 5881 5880 5879 5877 5877 5876 5875 5874 5874 5873 5872 5871 5871 5870 5869 5868 5866 5865 5863 5860 5858 5855 5852 5849 5846 5843 5839 5835 5834 5832 5829 5827 5824 5822 5821 5820 5818 5817 5816 5818 5820 5822 5824 5826 5827 5828 5829 5831
5876 5877 5877 5875 5874 5873 5872 5871 5870 5869 5868 5867 5866 5865 5864 5863 5862 5860 5858 5856 5853 5850 5847 5844 5841 5836 5833 5830 5827 5825 5822 5820 5817 5815 5813 5813 5811 5810 5809 5808 5810 5813 5815 5817 5819 5819 5820 5822 5824
5873 5873 5873 5872 5871 5870 5868 5867 5865 5864 5863 5862 5861 5860 5858 5857 5855 5853 5851 5848 5845 5842 5839 5836 5832 5828 5824 5822 5819 5816 5814 5811 5808 5806 5806 5804 5803 5802 5801 5802 5804 5805 5807 5809 5810 5811 5813 5815 5816
5871 5871 5871 5869 5867 5866 5865 5863 5862 5860 5858 5857 5856 5854 5852 5850 5848 5846 5843 5840 5837 5834 5830 5827 5823 5819 5816 5813 5811 5808 5806 5803 5801 5801 5799 5798 5796 5796 5796 5796 5797 5798 5800 5801 5802 5803 5805 5807 5809
5870 5868 5867 5866 5865 5865 5864 5864 5859 5856 5855 5853 5851 5849 5847 5844 5842 5839 5836 5833 5829 5826 5822 5818 5815 5811 5808 5805 5803 5800 5798 5796 5794 5793 5791 5790 5789 5789 5788 5789 5790 5790 5792 5793 5794 5795 5797 5798 5800
5866 5865 5864 5863 5863 5862 5861 5861 5857 5853 5851 5849 5846 5844 5841 5839 5836 5833 5829 5825 5821 5818 5813 5810 5806 5803 5800 5797 5794 5791 5789 5787 5785 5783 5782 5781 5780 5780 5779 5780 5780 5781 5782 5783 5784 5786 5788 5789 5791
5863 5863 5862 5861 5861 5861 5858 5858 5855 5850 5847 5844 5842 5839 5836 5833 5830 5826 5822 5818 5814 5810 5805 5801 5797 5794 5791 5787 5784 5781 5779 5776 5774 5772 5771 5770 5769 5769 5769 5769 5769 5770 5771 5773 5774 5776 5778 5780 5781
5861 5862 5863 5862 5861 5859 5855 5853 5851 5846 5843 5841 5838 5835 5831 5828 5824 5820 5815 5811 5806 5802 5797 5793 5788 5784 5780 5776 5773 5770 5767 5764 5762 5760 5758 5757 5756 5756 5755 5756 5756 5757 5758 5760 5762 5764 5766 5768 5770
5859 5860 5861 5860 5859 5857 5851 5849 5846 5842 5839 5836 5833 5829 5826 5821 5817 5812 5808 5803 5798 5793 5788 5783 5779 5774 5769 5764 5760 5757 5753 5751 5748 5746 5744 5742 5741 5741 5741 5741 5742 5743 5744 5745 5747 5750 5752 5755 5758
5857 5857 5856 5855 5854 5853 5850 5845 5842 5838 5835 5832 5828 5824 5819 5815 5810 5805 5800 5794 5789 5784 5778 5773 5767 5762 5757 5752 5747 5743 5739 5736 5733 5730 5728 5726 5725 5724 5723 5724 5725 5726 5727 5729 5731 5734 5737 5740 5744
5855 5854 5853 5852 5851 5850 5847 5842 5839 5834 5831 5826 5822 5817 5813 5808 5802 5797 5791 5785 5779 5773 5767 5761 5755 5750 5744 5738 5733 5728 5724 5720 5716 5713 5711 5709 5707 5706 5705 5705 5706 5707 5708 5711 5713 5716 5719 5723 5727
5853 5852 5850 5849 5847 5846 5844 5841 5835 5830 5826 5821 5816 5811 5806 5800 5794 5788 5781 5775 5768 5762 5755 5749 5743 5737 5731 5725 5719 5714 5708 5704 5699 5696 5692 5689 5687 5686 5685 5685 5685 5686 5688 5691 5694 5697 5701 5705 5709
5850 5849 5848 5847 5844 5841 5839 5837 5830 5825 5821 5816 5811 5805 5799 5792 5785 5778 5771 5764 5757 5750 5744 5737 5730 5723 5717 5710 5704 5698 5692 5687 5681 5677 5673 5669 5667 5665 5664 5664 5664 5665 5667 5670 5673 5677 5681 5685 5690